Weather History for Watertown, WI

Change the Weather History Date:

Wednesday, July 17, 2013

  Actual Average Record
Temperature  
Mean Temperature 82 °F -  
Max Temperature 92 °F 84 °F 102 °F (2012)
Min Temperature 72 °F 62 °F 33 °F (1998)
Cooling Degree Days 17    
Growing Degree Days 32 (Base 50)    
Moisture  
Dew Point 73 °F    
Average Humidity 77    
Maximum Humidity 96    
Minimum Humidity 52    
Precipitation  
Precipitation 0.08 in - - ()
Sea Level Pressure  
Sea Level Pressure 30.25 in    
Wind  
Wind Speed 3 mph (WSW)    
Max Wind Speed 9 mph    
Max Gust Speed -    
Visibility 10 miles    
Events Rain , Thunderstorm    
Averages and records for this station are not official NWS values.
T = Trace of Precipitation, MM = Missing Value Source: NWS Daily Summary

Daily Weather History Graph

Daily Weather History Graph

Search for Another Location

Airport:

Trip Planner

Search our weather history database for the weather conditions in past years. The results will help you decide how hot, cold, wet, or windy it might be!

Date:

Astronomy

Jul. 17, 2013 Rise Set
Actual Time 5:30 AM CDT 8:30 PM CDT
Civil Twilight 4:56 AM CDT 9:04 PM CDT
Nautical Twilight 4:13 AM CDT 9:48 PM CDT
Astronomical Twilight 3:21 AM CDT 10:39 PM CDT
Moon 3:17 PM CDT (7/17) 12:40 AM CDT (7/17)
Length of Visible Light 16h 08m
Length of Day
15h 00m
Waxing Gibbous, 67% of the Moon is Illuminated
Jul 17
Waxing Gibbous
Jul 22
Full
Jul 29
Last Quarter
Aug 6
New
Aug 14
First Quarter

Hourly Weather History & Observations

Time (CDT) Temp. Heat Index Dew Point Humidity Pressure Visibility Wind Dir Wind Speed Gust Speed Precip Events Conditions
12:15 AM 77.9 °F - 73.8 °F 87% 30.27 in 10.0 mi SW 3.5 mph - N/A   Clear
12:35 AM 77.9 °F - 73.8 °F 87% 30.27 in 10.0 mi Calm Calm - N/A   Clear
12:55 AM 77.2 °F - 73.4 °F 88% 30.27 in 10.0 mi Calm Calm - N/A   Clear
1:15 AM 76.1 °F - 73.0 °F 90% 30.27 in 10.0 mi Calm Calm - N/A   Clear
1:35 AM 75.2 °F - 73.0 °F 93% 30.27 in 10.0 mi Calm Calm - N/A   Clear
1:55 AM 76.1 °F - 73.4 °F 91% 30.27 in 10.0 mi Calm Calm - N/A   Clear
2:15 AM 75.0 °F - 72.9 °F 93% 30.27 in 10.0 mi Calm Calm - N/A   Clear
2:35 AM 75.2 °F - 72.9 °F 92% 30.27 in 10.0 mi Calm Calm - N/A   Clear
2:55 AM 74.8 °F - 72.5 °F 92% 30.27 in 10.0 mi Calm Calm - N/A   Clear
3:15 AM 74.8 °F - 72.5 °F 92% 30.28 in 10.0 mi Calm Calm - N/A   Clear
3:35 AM 73.8 °F - 72.5 °F 96% 30.28 in 10.0 mi Calm Calm - N/A   Clear
3:55 AM 73.6 °F - 72.3 °F 96% 30.28 in 7.0 mi Calm Calm - N/A   Clear
4:15 AM 73.6 °F - 72.5 °F 96% 30.28 in 7.0 mi Calm Calm - N/A   Clear
4:35 AM 72.9 °F - 71.6 °F 96% 30.28 in 7.0 mi Calm Calm - N/A   Clear
4:55 AM 73.0 °F - 72.0 °F 96% 30.28 in 7.0 mi Calm Calm - N/A   Clear
5:15 AM 73.4 °F - 72.3 °F 96% 30.29 in 7.0 mi Calm Calm - N/A   Clear
5:35 AM 73.2 °F - 71.6 °F 95% 30.29 in 5.0 mi Calm Calm - N/A   Clear
5:55 AM 72.7 °F - 70.9 °F 94% 30.29 in 4.0 mi Calm Calm - N/A   Clear
6:15 AM 73.0 °F - 71.4 °F 95% 30.29 in 7.0 mi Calm Calm - N/A   Clear
6:35 AM 74.7 °F - 73.0 °F 95% 30.29 in 7.0 mi Calm Calm - N/A   Clear
6:55 AM 76.3 °F - 73.4 °F 91% 30.30 in 10.0 mi Calm Calm - N/A   Clear
7:15 AM 77.4 °F - 73.9 °F 89% 30.30 in 10.0 mi SW 3.5 mph - N/A   Clear
7:35 AM 79.0 °F - 74.3 °F 85% 30.30 in 10.0 mi WSW 3.5 mph - N/A   Clear
7:55 AM 80.2 °F 85.0 °F 74.1 °F 82% 30.31 in 10.0 mi WSW 5.8 mph - N/A   Clear
8:15 AM 81.3 °F 87.0 °F 74.1 °F 79% 30.31 in 10.0 mi SW 4.6 mph - N/A   Clear
8:35 AM 82.8 °F 89.2 °F 74.3 °F 75% 30.31 in 10.0 mi West 8.1 mph - N/A   Clear
8:55 AM 83.3 °F 90.2 °F 74.3 °F 74% 30.30 in 10.0 mi West 5.8 mph - N/A   Clear
9:15 AM 84.2 °F 91.6 °F 74.1 °F 72% 30.30 in 10.0 mi West 5.8 mph - N/A   Clear
9:35 AM 85.1 °F 92.9 °F 74.3 °F 70% 30.29 in 10.0 mi West 5.8 mph - N/A   Clear
9:55 AM 86.0 °F 93.8 °F 73.8 °F 67% 30.29 in 10.0 mi West 8.1 mph - N/A   Clear
10:15 AM 86.7 °F 95.0 °F 73.9 °F 66% 30.29 in 10.0 mi West 4.6 mph - N/A   Clear
10:35 AM 87.3 °F 96.3 °F 74.5 °F 66% 30.29 in 10.0 mi WSW 6.9 mph - N/A   Clear
10:55 AM 88.0 °F 97.0 °F 74.3 °F 64% 30.29 in 10.0 mi SW 5.8 mph - N/A   Scattered Clouds
11:15 AM 89.4 °F 99.4 °F 74.7 °F 62% 30.28 in 10.0 mi SW 8.1 mph - N/A   Scattered Clouds
11:35 AM 88.7 °F 96.2 °F 72.7 °F 59% 30.28 in 10.0 mi West 6.9 mph - N/A   Mostly Cloudy
11:55 AM 87.8 °F 95.2 °F 72.9 °F 61% 30.28 in 10.0 mi WNW 5.8 mph - N/A   Mostly Cloudy
12:55 PM 89.1 °F 97.0 °F 73.2 °F 59% 30.27 in 10.0 mi SW 6.9 mph - N/A   Scattered Clouds
1:15 PM 90.0 °F 98.5 °F 73.6 °F 58% 30.26 in 10.0 mi WSW 8.1 mph - N/A   Scattered Clouds
1:35 PM 90.1 °F 98.3 °F 73.2 °F 57% 30.25 in 10.0 mi SW 9.2 mph - N/A   Scattered Clouds
1:55 PM 90.1 °F 97.8 °F 72.5 °F 56% 30.25 in 10.0 mi WSW 8.1 mph - N/A   Clear
2:35 PM 91.6 °F 98.8 °F 71.6 °F 52% 30.23 in 10.0 mi SW 8.1 mph - N/A   Scattered Clouds
2:55 PM 92.3 °F 100.9 °F 72.7 °F 53% 30.23 in 10.0 mi WSW 6.9 mph - N/A   Clear
3:15 PM 92.3 °F 101.5 °F 73.2 °F 54% 30.22 in 10.0 mi WSW 8.1 mph - N/A   Scattered Clouds
3:35 PM 91.9 °F 100.1 °F 72.3 °F 53% 30.22 in 10.0 mi West 9.2 mph - N/A   Scattered Clouds
3:55 PM 91.4 °F 98.4 °F 71.6 °F 52% 30.21 in 10.0 mi WSW 8.1 mph - N/A   Scattered Clouds
4:15 PM 90.7 °F 97.4 °F 71.2 °F 53% 30.21 in 10.0 mi WSW 8.1 mph - N/A   Scattered Clouds
4:35 PM 91.4 °F 98.9 °F 72.1 °F 53% 30.21 in 10.0 mi WSW 8.1 mph - N/A   Scattered Clouds
4:55 PM 91.8 °F 99.1 °F 72.1 °F 52% 30.21 in 10.0 mi West 8.1 mph - N/A   Scattered Clouds
5:15 PM 88.9 °F 95.6 °F 72.0 °F 57% 30.20 in 10.0 mi WSW 5.8 mph - N/A   Scattered Clouds
5:35 PM 88.9 °F 96.6 °F 73.0 °F 59% 30.20 in 10.0 mi WSW 3.5 mph - N/A   Mostly Cloudy
5:55 PM 87.4 °F 94.8 °F 73.0 °F 62% 30.20 in 10.0 mi West 6.9 mph - N/A Rain Rain
6:35 PM 85.6 °F 94.2 °F 74.8 °F 70% 30.19 in 10.0 mi Calm Calm - 0.08 in   Mostly Cloudy
6:55 PM 81.5 °F 86.3 °F 72.5 °F 74% 30.19 in 10.0 mi SW 5.8 mph - 0.08 in Thunderstorm Scattered Clouds
7:55 PM 80.1 °F 83.8 °F 71.8 °F 76% 30.18 in 10.0 mi SW 6.9 mph - N/A   Clear
8:15 PM 79.3 °F - 72.1 °F 79% 30.18 in 10.0 mi SW 3.5 mph - N/A   Clear
8:55 PM 77.7 °F - 71.1 °F 80% 30.18 in 10.0 mi Calm Calm - N/A   Clear
9:15 PM 77.2 °F - 72.0 °F 84% 30.18 in 10.0 mi Calm Calm - N/A   Clear
9:35 PM 76.8 °F - 71.6 °F 84% 30.18 in 10.0 mi Calm Calm - N/A   Clear
9:55 PM 76.3 °F - 71.4 °F 85% 30.19 in 10.0 mi Calm Calm - N/A   Clear
10:15 PM 75.2 °F - 71.1 °F 87% 30.19 in 10.0 mi Calm Calm - N/A   Clear
10:35 PM 75.7 °F - 71.1 °F 85% 30.19 in 10.0 mi Calm Calm - N/A   Clear
10:55 PM 75.6 °F - 71.1 °F 86% 30.19 in 10.0 mi Calm Calm - N/A   Clear
11:15 PM 74.7 °F - 71.2 °F 89% 30.19 in 10.0 mi Calm Calm - N/A   Clear
11:35 PM 74.8 °F - 71.1 °F 88% 30.18 in 10.0 mi Calm Calm - N/A   Clear
11:55 PM 73.6 °F - 70.9 °F 91% 30.18 in 10.0 mi Calm Calm - N/A   Clear